Location: Fort Worth, Tx
(32.7431°N, 97.3695°W)
Time: 09:58:23
(UTC-04:00)

A-11 Canister half - Pass Details

Date: 22 August 2024
Orbit: 1524 x 1684 km, 47.3° (Epoch: 13 September)

Event Time Altitude Azimuth Distance (km) Brightness Sun altitude
Rises 05:52:36 0° 305° (NW) 4,939 11.5 -24.9°
Reaches altitude 10° 05:55:49 10° 302° (WNW) 3,944 10.9 -24.3°
Maximum altitude 06:05:44 61° 225° (SW) 1,835 9.0 -22.6°
Drops below altitude 10° 06:15:22 10° 148° (SSE) 3,841 11.1 -20.8°
Sets 06:18:29 0° 145° (SE) 4,804 11.7 -20.3°
